User: anonymous
Location: Hepcat Sky Observatory
(29.9800°N, 95.6500°W)
Time: 21:46:57
(UTC-05:00)
Language:

Cosmos 2151 Rocket - Orbit

View from above orbital plane
View from above orbital plane
View from above satellite
View from above satellite

Ground track
Ground track

The orbit data is extracted from the following two-line orbital elements,

1 21423U 91042B   14110.68924444  .00000616  00000-0  79834-4 0  6733
2 21423 082.4925 319.0487 0019060 070.9597 356.6132 14.79163328232039
Epoch (UTC): 20 April 2014 16:32:30
Eccentricity: 0.0019060
inclination: 82.4925°
perigee height: 618 km
apogee height: 645 km
right ascension of ascending node: 319.0487°
argument of perigee: 70.9597°
revolutions per day: 14.79163328
mean anomaly at epoch: 356.6132°
orbit number at epoch: 23203

The dashed part of the orbit path shows where the satellite is in the earth's shadow,  

DLR